Location: Albany
(35.0000°S, 118.0000°E)
Time: 04:55:04
(UTC-05:00)

Vanguard 3 - Visible Passes

Search period start: 08 December 2016 00:00
Search period end: 18 December 2016 00:00
Orbit: 507 x 3267 km, 33.4° (Epoch: 07 December)

Date Brightness Start Highest point End Pass type
(mag) Time Alt. Az. Time Alt. Az. Time Alt. Az.
08 Dec 7.1 07:52:35 10° W 07:56:01 36° NNW 07:56:46 33° N visible
09 Dec 6.5 06:39:13 10° W 06:43:00 54° NNW 06:46:46 10° ENE visible
09 Dec 8.9 08:51:27 10° WNW 08:51:49 12° WNW 08:51:49 12° WNW visible
10 Dec 7.4 07:37:47 10° W 07:41:01 28° NNW 07:42:16 23° NNE visible
12 Dec 7.8 07:23:01 10° WNW 07:25:59 22° NNW 07:27:51 16° NNE visible
14 Dec 8.2 07:08:17 10° WNW 07:10:52 17° NNW 07:13:23 10° NNE visible
16 Dec 8.5 06:53:40 10° WNW 06:55:41 13° NNW 06:57:35 10° N visible
